Tracking 29091 objects as of 17-Jul-2024
HD Live streaming from Space Station
objects crossing your sky now

STARLINK-3060

Track STARLINK-3060 now!
10-day predictions
STARLINK-3060 is classified as:


NORAD ID: 49155
Int'l Code: 2021-082AB
Perigee: 577.2 km
Apogee: 581.2 km
Inclination: 70.0 °
Period: 96.1 minutes
Semi major axis: 6950 km
RCS: Unknown
Launch date: September 14, 2021
Source: United States (US)
Launch site: AIR FORCE WESTERN TEST RANGE (AFWTR)
Your satellite tracking list
Your tracking list is empty




NASA's NSSDC Master Catalog

Two Line Element Set (TLE):
1 49155U 21082AB  24199.52468265 -.00000532  00000-0 -36810-4 0  9994
2 49155  70.0023 327.6904 0002869 275.1013  84.9818 14.98323048158142
Source of the keplerian elements: AFSPC